INTELSAT 23 (IS-23)

Last updated on Mon Oct 14 2024 00:02:39 GMT+0000 (Coordinated Universal Time)

1 38867U 12057A 24287.39605181 -.00000286 00000+0 00000+0 0 9998 2 38867 0.0204 226.1109 0000556 128.1501 117.7962 1.00269178 43818
UTC large
Height (km)
Speed (km/s)
/
Latitude / Longitude
Inclination (degrees)
Orbital Period (minutes)
Azimuth
Elevation
Range (km)
Doppler Factor

Next 0 passes for location: London (51.5072 / 0.1276)

Sorry there are no passes over London.